877  
AXUS43 KGID 301202  
MISGRI  
 
GID CWA HOURLY WEATHER ROUNDUP  
NATIONAL WEATHER SERVICE HASTINGS NE  
700 AM CDT THU JUN 30 2016  
 
NOTE: "FAIR" INDICATES FEW OR NO CLOUDS BELOW 12,000 FEET WITH NO  
SIGNIFICANT WEATHER AND/OR OBSTRUCTIONS TO VISIBILITY.  
   
..SOUTH CENTRAL NEBRASKA
 
 
 
CITY SKY/WX TMP DP RH WIND PRES REMARKS  
GRAND ISLAND CLOUDY 65 61 87 CALM 30.02R  
HASTINGS CLOUDY 66 61 84 W3 30.03R  
KEARNEY CLOUDY 64 61 88 S8 30.03R  
ORD CLOUDY 63 60 90 N3 30.03R  
YORK MOCLDY 66 63 88 NW7 30.01R  
AURORA CLOUDY 65 64 96 CALM 30.02R  
LEXINGTON LGT RAIN 65 60 84 NW17 30.04R  
HOLDREGE CLOUDY 65 60 82 W8 30.03F  
HEBRON CLOUDY 68 64 87 NW3 29.99S  
   
..NEBRASKA PANHANDLE
 
 
 
CITY SKY/WX TMP DP RH WIND PRES REMARKS  
CHADRON CLEAR 57 55 93 CALM 30.15R  
ALLIANCE CLEAR 57 56 96 N5 30.16R  
SCOTTSBLUFF CLEAR 57 55 93 NW3 30.17R  
SIDNEY CLEAR 57 54 89 CALM 30.18R  
   
..WESTERN AND NORTH CENTRAL NEBRASKA
 
 
 
CITY SKY/WX TMP DP RH WIND PRES REMARKS  
VALENTINE PTCLDY 59 56 89 NW7 30.10R  
AINSWORTH PTCLDY 60 58 91 NW7 30.08S  
ONEILL PTCLDY 63 60 90 NW7 30.02S  
BROKEN BOW CLOUDY 65 58 78 W10 30.01F  
IMPERIAL CLOUDY 61 59 93 S5 30.11S  
NORTH PLATTE CLOUDY 63 61 93 S3 30.06F  
MCCOOK CLOUDY 64 60 87 W7 30.06F  
   
..EASTERN NEBRASKA
 
 
 
CITY SKY/WX TMP DP RH WIND PRES REMARKS  
NORFOLK PTCLDY 65 60 84 W7 29.99R  
SO SIOUX CITY MOSUNNY 69 64 84 CALM 29.96R  
TEKAMAH MOSUNNY 65 63 93 NW7 29.95R FOG  
COLUMBUS PTCLDY 66 55 68 W8 30.00R  
ALBION PTCLDY 62 56 81 CALM 30.02F  
OMAHA EPPLEY CLOUDY 73 68 84 CALM 29.94R  
OFFUTT AFB CLOUDY 70 70 100 E2 29.94R  
MILLARD PTSUNNY 70 68 94 CALM 29.94R  
LINCOLN MOCLDY 71 68 90 NW7 29.96R  
NEBRASKA CITY CLOUDY 68 68 100 CALM 29.95S FOG  
BEATRICE MOCLDY 69 67 92 CALM 29.95R  
FALLS CITY PTCLDY 69 67 93 CALM 29.93R  
   
..NORTHERN KANSAS
 
 
 
CITY SKY/WX TMP DP RH WIND PRES REMARKS  
GOODLAND CLOUDY 59 57 93 CALM 30.13S  
HILL CITY CLOUDY 64 59 83 NW3 30.03F  
NORTON SUNNY 64 57 77 NW8 30.07R  
PHILLIPSBURG CLEAR 64 61 88 NW9 30.02R  
SMITH CENTER PTCLDY 64 59 82 S6 30.00R  
HAYS PTCLDY 64 57 77 S3 29.99F  
RUSSELL CLOUDY 71 60 68 NE7 29.96F  
CONCORDIA CLOUDY 70 65 84 W5 29.97S  
SALINA MOCLDY 73 62 68 N10 29.98R  
TOPEKA CLOUDY 71 68 90 CALM 29.93R  
 
CLICK HERE TO GO TO PREVIOUS BULLETINS.

The Nexlab NE Page
The Nexlab KS Page Main Text Page